Location: Raitis
(47.2167°N, 11.3833°E)
Time: 07:47:26
(UTC+00:00)

Cosmos 1666 - Pass Details

Date: 03 March 2021
Orbit: 497 x 518 km, 82.5° (Epoch: 14 April)

Event Time Altitude Azimuth Distance (km) Brightness Sun altitude
Rises 18:28:20 0° 174° (S) 2,573 6.1 -15.3°
Reaches altitude 10° 18:30:28 10° 169° (S) 1,695 5.1 -15.7°
Maximum altitude 18:34:02 48° 95° (E) 664 2.8 -16.3°
Drops below altitude 10° 18:37:40 10° 20° (NNE) 1,716 5.2 -16.9°
Sets 18:39:50 0° 15° (NNE) 2,608 6.2 -17.2°
